Regional Weather Roundup
Issued by NWS

Home | Current Version | Previous Version | Text Only | Print | Product List | Glossary On
Versions: 1 2 3 4 5 6 7 8 9 10 11 12 13 14 15 16 17 18 19 20 21 22 23 24 25 26 27 28 29 30 31 32 33 34 35 36 37 38 39 40 41 42 43 44 45 46 47 48 49 50
000
ASUS45 KSLC 010610
RWRUT

UTAH REGIONAL WEATHER ROUNDUP
NATIONAL WEATHER SERVICE SALT LAKE CITY UT
1200 AM MDT FRI AUG 01 2014

UTZ001>011-023>025-010700-

NORTHERN UTAH

CITY           SKY/WX    TMP DP  RH WIND       PRES   REMARKS
HILL AFB       MOCLDY    69  53  55 SE10      30.16F
LOGAN          CLEAR     63  53  70 CALM      30.15S
OGDEN          PTCLDY    70  53  54 S8        30.14S
PROVO AIRPORT  MOCLDY    70  55  60 S7        30.17S
SALT LAKE CITY CLOUDY    72  54  53 S7        30.13S
VERNAL         MOCLDY    67  45  45 W7        30.18R
WENDOVER       CLEAR     73  43  33 CALM      30.15S
HEBER CITY     MOCLDY    59  54  82 CALM      30.24S
WEST JORDAN    CLEAR     72  61  68 CALM      30.17S

$$

UTZ012>022-026-027-010700-

SOUTHERN UTAH

CITY           SKY/WX    TMP DP  RH WIND       PRES   REMARKS
BRYCE CANYON   LGT RAIN  55  50  83 W12       30.42F
CEDAR CITY     CLOUDY    69  49  48 SE12      30.20F
MILFORD        CLOUDY    66  55  67 CALM      30.19S
MOAB/CYNLANDS  NOT AVBL
PRICE          PTCLDY    63  54  72 E5        30.24R
ST GEORGE      MOCLDY    82  52  34 E18       30.02F
KANAB          MOCLDY    70  54  56 NW14      30.29R

$$

REGIONAL REPORTS     COLORADO/ARIZONA

CITY           SKY/WX    TMP DP  RH WIND       PRES   REMARKS
CRAIG, CO      MOCLDY    55  52  89 N8        30.24S
GRAND JUNCTION CLOUDY    72  53  51 NW6       30.13R
RIFLE          MOCLDY    67  49  52 SE8       30.20R
MONTROSE       MOCLDY    68  55  63 SE13      30.23R
CORTEZ         CLEAR     70  54  56 SW10      30.24R
PAGE, AZ       CLOUDY    79  52  38 SW10      30.12F
GRAND CANYON   MOCLDY    56  52  86 NE6       30.32F
KINGMAN        MOCLDY    83  51  33 SE16      30.03R
FLAGSTAFF      CLOUDY    56  54  93 CALM      30.35S

$$

REGIONAL REPORTS    NEVADA/IDAHO/WYOMING

CITY           SKY/WX    TMP DP  RH WIND       PRES   REMARKS
LAS VEGAS, NV  MOCLDY    97  43  15 S8        29.83S HX  93
ELY            MOCLDY    58  46  64 W7        30.29R
ELKO           CLOUDY    64  51  62 E6        30.21S
POCATELLO, ID  CLOUDY    71  52  50 S5        30.18S
BURLEY         MOCLDY    70  52  52 CALM      30.14F
EVANSTON, WY   CLEAR     63  42  46 N3        30.33S
ROCK SPRINGS   PTCLDY    64  32  30 N5        30.30S

$$



USA.gov is the U.S. government's official web portal to all federal, state and local government web resources and services.